239  
FPUS82 KCHS 211712  
OPUCHS  
 
TEST   
..KCHS/KSAV GATEWAY OBSERVATIONS
 
TEST  
NATIONAL WEATHER SERVICE CHARLESTON SC  
1200 PM EST TUE NOV 21 2017  
 
NOTE: "FAIR" INDICATES FEW OR NO CLOUDS BELOW 12,000 FEET WITH NO  
SIGNIFICANT WEATHER AND/OR OBSTRUCTIONS TO VISIBILITY.  
 
SCZ050-WAZ558-NCZ071-TXZ119-213-PAZ071-DCZ001-FLZ074-172-MI076-  
NYZ176-178-MAZ016-IL014-TNZ027-NJZ106-GAZ044-MD014-211800-  
   
..GATEWAY OBSERVATIONS FOR CHARLESTON INTERNATIONAL
 
 
 
CITY SKY/WX TMP DP RH WIND PRES REMARKS  
CHAS AIRPORT PTSUNNY 71 57 61 E6 30.10F  
SEATTLE LGT RAIN 43 42 97 W3 29.94F FOG  
CHARLOTTE CLOUDY 58 44 60 S6 30.15F  
DALLAS DFW MOSUNNY 63 51 65 S8 29.91R  
DALLAS LOVE MOSUNNY 62 51 67 VRB3 29.92R  
PHILLADELPHIA PTSUNNY 56 31 38 SW17 30.10F  
WASH NATIONAL CLOUDY 59 32 36 S17G23 30.10F  
BALTIMORE PTSUNNY 57 30 35 SW10G18 30.08F  
MIAMI MOSUNNY 83 70 64 S7 29.98F  
DETROIT PTSUNNY 50 31 48 SW22G31 29.74F  
NEWARK PTSUNNY 56 32 40 SW17G26 30.08F  
LAGUARDIA PTSUNNY 56 30 37 SW16G25 30.08F  
J F K PTSUNNY 57 33 40 SW22 30.11F  
BOSTON LOGAN MOSUNNY 57 28 33 SW31G38 30.03F  
FT. LAUDERDALE MOSUNNY 80 69 69 SE9 29.97F  
CHICAGO O'HARE CLOUDY 43 25 49 W15G24 29.80R  
CHICAGO MIDWAY LGT RAIN 41 35 79 W12 29.82R  
HOUSTON BUSH CLOUDY 71 63 75 SE9 29.92F  
HOUSTON HOBBY CLOUDY 71 65 81 S5 29.92F  
NASHVILLE MOSUNNY 56 31 38 SW12G17 30.07F  
ATLANTA PTSUNNY 59 48 67 SE6 30.10F  
 

 
 
GAZ044-118-TXZ119-213-NCZ071-DCZ001-MDZ014-506-PAZ021-071-NJZ106-  
NYZ176-178-MAZ106-OHZ011-021-055-MIZ076-KYZ091-ILZ014-INZ047-  
MNZ060-ONZ431-211800-  
   
..GATEWAY OBSERVATIONS FOR SAVANNAH INTERNATIONAL
 
 
 
CITY SKY/WX TMP DP RH WIND PRES REMARKS  
SAVANNAH ARPT CLOUDY 71 58 63 E8 30.08F  
ATLANTA PTSUNNY 59 48 67 SE6 30.10F  
CHARLOTTE CLOUDY 58 44 60 S6 30.15F  
DALLAS DFW MOSUNNY 63 51 65 S8 29.91R  
HOUSTON BUSH CLOUDY 71 63 75 SE9 29.92F  
WASH NATIONAL CLOUDY 59 32 36 S17G23 30.10F  
WASH DULLES CLOUDY 54 31 41 SW16 30.08F  
BALTIMORE PTSUNNY 57 30 35 SW10G18 30.08F  
PHILADELPHIA PTSUNNY 56 31 38 SW17 30.10F  
NEWARK PTSUNNY 56 32 40 SW17G26 30.08F  
LAGUARDIA PTSUNNY 56 30 37 SW16G25 30.08F  
J F K PTSUNNY 57 33 40 SW22 30.11F  
BOSTON MOSUNNY 57 28 33 SW31G38 30.03F  
PITTSBURG MOSUNNY 51 27 39 SW20G30 29.93F  
AKRON PTSUNNY 50 27 40 S25G38 29.86F  
CLEVELAND PTSUNNY 52 30 43 SW18G35 29.84S  
CINCINNATI MOSUNNY 51 31 46 SW17G30 29.94F  
COLUMBUS CLOUDY 49 31 50 SW23G30 29.93F  
DETROIT PTSUNNY 50 31 48 SW22G31 29.74F  
CHICAGO O'HARE CLOUDY 43 25 49 W15G24 29.80R  
MINNEAPOLIS MOSUNNY 25 12 58 NW20G29 30.06R WCI 11  
INDIANAPOLIS NOT AVBL  
TORONTO CANADA PTSUNNY 52 34 50 SW23G38 29.65S  
 

 
 
 
CLICK HERE TO GO TO PREVIOUS BULLETINS.

The Nexlab SC Page
The Nexlab GA Page Main Text Page